SCP
0 0 0 0 0 0 0 0 0 0 0 -0 -0 -0 -0 -0 0 0 0 0 0 0 0 0 0 0 0 0 1 1 1 1 1 1 0 0 0 0 0 0 0 0 0
0 0 0 0 0 0 0 0 0 0 0 0 -0 -0 -0 -0 -0 -0 0 0 0 0 0 0 0 0 0 0 0 1 1 1 1 1 0 0 0 0 0 0 0 0 0
0 0 0 0 0 0 0 0 0 0 0 0 0 0 0 -0 -0 -0 0 0 0 0 0 0 0 0 0 0 0 0 0 1 1 0 1 0 0 0 0 0 0 0 0
0 0 0 0 0 0 0 0 0 0 0 0 0 0 0 0 -0 -0 -0 -0 0 0 0 0 0 0 0 0 0 0 0 1 1 1 0 1 0 0 0 0 0 0 0
0 0 0 0 0 0 0 0 0 0 0 0 0 0 0 -0 -0 -0 -0 -0 0 0 0 0 0 0 0 0 0 0 0 0 0 0 1 0 0 0 0 0 0 0 0
0 0 0 0 0 0 0 0 0 0 0 0 0 0 0 0 -0 -0 -0 -0 -0 0 0 0 0 0 0 0 0 0 0 0 0 0 1 1 0 1 1 1 0 0 0
0 0 0 0 0 0 0 0 0 0 0 0 0 0 0 0 0 -0 -0 -0 -0 0 0 0 0 0 0 0 0 0 0 0 0 0 0 1 1 1 0 0 0 0 0
0 0 0 0 0 0 0 0 0 0 0 0 0 0 0 0 0 0 -0 -0 0 0 0 0 0 0 0 0 0 0 0 0 0 0 0 1 1 1 1 1 0 0 0
0 0 0 0 0 0 0 0 0 0 0 0 0 0 0 0 0 0 0 0 0 0 0 0 0 0 0 0 0 0 0 0 0 0 0 0 0 1 0 0 0 0 0
0 0 0 0 0 0 0 0 0 0 0 0 0 0 0 0 0 0 0 0 0 0 0 0 0 0 0 0 0 0 0 0 0 0 0 0 0 0 0 0 0 0 0
0 0 0 0 0 0 0 0 0 0 0 0 0 0 0 0 0 0 0 0 0 0 0 0 0 0 0 0 0 0 0 0 0 0 0 0 0 0 0 0 0 0 0
0 0 0 0 0 0 0 0 0 0 0 0 0 0 0 0 0 0 0 0 0 0 0 0 0 0 0 0 0 0 0 0 0 0 0 0 0 0 0 0 0 0 0
0 0 0 0 0 0 0 0 0 -0 -0 0 0 0 0 0 0 0 0 0 0 0 0 0 0 0 0 0 0 0 0 0 0 0 0 0 0 0 0 0 0 0 0
0 0 0 0 0 0 0 0 -0 -0 -0 0 0 0 0 0 0 0 0 0 0 0 0 0 0 0 0 0 0 0 0 0 0 0 0 0 0 0 0 0 0 0 0
0 0 0 0 0 0 0 0 0 -0 0 0 0 0 0 0 0 0 0 0 0 0 0 0 0 0 0 0 0 0 0 0 0 0 0 0 0 0 0 0 0 0 0
0 0 0 0 0 0 0 0 -0 0 0 0 0 0 0 0 0 0 0 0 0 0 0 0 0 0 -0 -0 0 0 0 0 0 0 0 0 0 0 0 0 0 0 0
0 0 0 0 0 0 0 0 0 0 0 0 0 0 0 0 0 0 -0 -0 -0 -0 -0 -0 -0 -0 0 -0 0 0 0 0 0 0 0 0 0 0 0 0 0 0 0
0 0 0 0 0 0 0 0 0 0 0 0 0 0 -0 -0 0 0 -0 0 0 -0 -0 -0 -0 -0 -0 -0 -0 -0 0 0 0 0 0 0 0 0 0 0 0 0 0
0 0 0 0 0 -0 0 0 0 0 0 0 0 0 -0 -0 0 -0 -0 0 -0 0 0 0 -0 -0 -0 -0 -0 0 0 0 0 0 0 0 0 0 0 0 0 0 0
0 0 0 -0 -0 0 0 0 0 0 0 0 0 -0 -0 0 -0 0 0 0 0 0 -0 0 0 -0 -0 -0 -0 0 0 0 0 0 0 0 0 0 0 0 0 -0 0
0 -0 -0 -0 -0 0 0 0 0 0 0 0 0 -0 -0 0 0 0 0 -0 -0 -0 -0 -0 0 0 -0 -0 -0 -0 0 0 0 0 0 0 -0 0 0 0 0 0 -0
0 -0 -0 -0 0 0 0 0 0 0 -0 0 -0 -0 -0 -0 0 -0 -0 -0 0 0 0 0 0 0 -0 -0 -0 -0 -0 -0 0 0 0 0 -0 -0 -0 0 -0 0 0
-0 -0 -0 0 0 0 0 0 0 0 -0 0 0 -0 -0 -0 -0 -0 0 0 0 0 0 0 0 0 0 0 0 0 0 0 0 0 0 0 -0 -0 -0 -0 0 0 -0
-0 -0 0 0 0 0 0 0 0 0 -0 -0 -0 -0 -0 -0 -0 0 0 0 0 0 0 0 0 0 0 0 0 0 0 0 0 0 0 -0 -0 -0 0 0 -0 -0 -0
0 -0 0 0 0 0 0 0 0 0 0 -0 0 -0 -0 0 0 0 0 0 0 0 0 0 0 0 0 0 0 0 0 0 0 0 0 0 0 0 0 0 -0 -0 -0
0 0 0 0 0 0 0 0 0 -0 0 -0 -0 -0 0 0 0 0 0 0 0 -0 -0 -0 0 0 0 -0 -0 -0 0 0 0 0 0 0 0 0 0 -0 -0 -0 0
Wind_Speed_500mb
16 3 12 12 15 15 22 24 31 40 38 40 46 56 66 61 64 57 52 48 47 48 48 46 42 41 45 48 63 67 69 68 68 73 72 72 72 72 71 76 75 69 69
15 1 4 14 10 19 19 23 39 38 32 37 43 51 62 62 65 64 70 63 55 52 55 59 59 54 51 49 53 56 63 68 67 66 72 72 72 76 72 66 69 70 81
8 7 5 4 17 15 20 38 39 30 28 36 42 51 58 58 68 76 80 73 69 65 64 64 64 65 60 58 55 52 55 60 65 63 63 30 40 63 68 60 49 48 60
6 4 9 12 9 16 32 34 28 26 32 38 40 46 52 64 74 78 80 83 86 84 75 70 65 61 60 62 64 58 53 51 58 71 66 65 68 63 61 61 47 41 42
14 10 9 10 10 30 28 26 20 24 32 36 45 53 60 64 70 76 84 86 91 95 91 85 76 69 66 61 57 60 56 57 55 54 69 74 64 66 72 72 69 67 68
4 5 5 12 26 28 27 11 17 28 32 42 51 58 62 66 74 83 95 104 106 98 85 81 78 75 73 72 69 58 51 55 57 58 55 63 61 67 63 69 80 77 74
7 7 11 23 19 13 13 20 23 31 44 52 61 67 73 83 92 100 107 110 108 90 84 76 73 74 70 71 72 70 62 53 51 54 62 61 65 64 73 73 73 67 55
24 7 18 12 11 17 24 27 34 42 51 62 75 85 95 99 103 107 112 113 91 74 66 72 68 67 66 61 54 62 62 61 61 54 49 52 62 60 65 69 72 67 67
7 11 7 12 20 20 21 29 42 52 63 80 90 97 100 106 113 114 109 100 72 68 58 62 72 62 57 58 59 70 69 67 69 66 55 51 48 53 60 61 59 63 58
6 7 12 16 11 18 30 42 54 70 85 90 95 102 109 113 111 101 89 74 71 65 64 66 66 60 54 54 57 56 62 68 73 75 68 61 54 58 53 50 52 58 60
10 11 9 8 21 33 47 60 74 83 90 96 104 112 109 94 82 74 70 73 67 60 59 62 58 58 55 53 51 51 48 53 62 66 67 67 61 51 55 47 43 49 55
9 9 11 23 37 48 60 70 82 91 95 104 108 97 83 75 74 72 68 65 65 64 60 57 57 55 54 50 49 50 52 47 38 44 47 51 51 50 40 45 43 46 51
11 13 24 36 47 57 67 78 87 94 102 101 90 79 72 69 72 69 67 65 62 60 56 56 56 56 54 52 50 42 43 46 48 50 45 43 41 45 46 42 40 47 42
15 22 33 43 50 58 71 84 90 96 93 83 74 70 70 66 64 63 63 60 55 53 51 47 46 47 45 44 40 42 40 35 32 33 35 36 34 36 38 37 42 42 31
19 27 33 42 52 64 78 84 88 87 77 71 66 66 62 60 62 63 59 53 47 40 39 39 36 27 29 29 29 32 31 27 22 20 23 25 26 25 26 33 36 32 22
11 21 33 42 56 69 77 82 83 74 66 64 61 58 59 61 60 57 52 48 41 36 35 31 18 13 12 8 14 23 21 23 21 26 24 21 22 19 24 26 23 17 18
12 23 34 48 60 71 76 77 70 62 59 55 53 53 58 56 54 51 48 43 40 35 29 22 11 9 13 13 19 25 25 21 34 32 31 30 32 32 26 26 33 34 28
15 27 41 53 63 69 72 65 55 54 51 50 53 53 53 50 47 46 44 42 40 39 36 31 20 11 6 6 20 28 31 39 43 49 43 42 38 34 33 37 35 30 29
22 36 49 59 65 69 64 56 54 51 51 53 52 49 47 42 41 42 41 38 38 39 39 37 32 26 25 20 34 36 54 55 52 53 47 43 41 35 31 35 46 49 52
34 48 58 62 66 63 54 50 50 52 52 51 46 44 38 36 37 36 38 41 43 45 45 47 45 37 34 29 52 64 62 61 59 53 51 48 50 50 50 53 55 56 51
43 54 60 62 59 53 48 46 49 51 46 43 39 37 37 32 34 34 37 45 54 58 63 65 63 60 57 52 50 60 67 67 67 68 65 60 54 50 49 47 45 42 35
45 56 58 56 52 46 45 44 48 43 41 39 35 33 32 32 32 35 42 51 62 71 78 81 83 81 82 77 72 68 72 73 79 75 66 58 54 49 42 42 41 39 37
47 53 52 47 45 50 48 46 43 41 36 34 36 36 35 36 38 42 51 65 74 78 76 75 71 68 65 67 67 65 66 66 64 61 56 49 48 51 51 46 41 35 28
44 47 44 41 44 47 45 43 39 37 34 37 41 46 54 55 56 69 71 70 71 69 71 70 67 60 59 57 52 48 47 45 48 54 52 44 42 41 38 33 33 32 25
40 41 37 38 43 45 44 39 38 38 45 49 54 62 66 68 69 72 74 73 74 67 69 65 59 55 58 54 51 55 57 55 53 48 41 40 36 36 34 32 32 26 19
36 34 31 39 48 53 47 39 44 47 54 68 76 70 70 72 71 68 64 57 53 61 62 61 64 62 53 46 45 46 46 40 34 45 53 53 48 40 34 34 32 28 20
Wind_Direction_500mb
165 71 3 323 296 310 326 331 336 337 332 335 343 346 351 354 352 340 329 324 313 294 290 288 288 279 278 265 254 259 264 264 265 267 267 264 267 269 266 261 260 260 261
174 176 276 273 283 327 324 328 333 324 322 333 338 339 340 343 343 343 340 328 317 313 304 295 287 285 286 280 266 260 262 263 261 260 262 270 273 264 265 268 268 267 260
187 244 264 348 343 330 331 331 323 312 323 328 330 331 331 333 335 335 334 331 326 315 308 306 302 289 279 280 278 280 270 264 262 261 255 259 252 270 276 281 284 279 270
174 118 35 351 324 338 334 327 314 313 318 325 326 326 326 328 333 334 329 324 322 317 308 302 301 296 287 275 271 275 275 273 268 265 262 256 258 269 284 275 278 280 274
98 34 348 337 335 336 337 328 302 306 316 319 318 321 323 325 327 325 322 318 315 312 306 301 297 291 288 276 270 266 267 268 265 265 265 265 263 263 263 273 276 275 277
35 15 5 348 338 335 323 319 303 310 313 317 319 319 319 319 317 319 318 316 315 310 301 296 294 290 281 274 269 262 260 260 262 261 261 264 264 261 264 264 270 274 275
317 331 331 338 340 341 338 322 309 311 317 318 318 317 317 317 317 318 318 316 312 305 299 296 289 288 287 277 266 265 258 257 262 263 258 261 262 265 263 264 265 271 278
343 342 350 25 33 350 333 319 315 317 319 322 321 320 318 315 315 317 316 313 307 302 296 294 290 284 284 283 270 261 257 251 252 255 258 259 259 262 261 263 261 266 271
9 356 70 7 353 345 332 321 325 329 328 327 322 319 317 316 316 314 311 309 301 299 293 286 291 288 285 284 273 258 251 249 248 251 255 260 263 266 266 266 263 260 262
36 99 11 5 12 337 335 333 331 332 330 325 322 319 317 316 313 311 308 305 301 296 292 293 293 292 285 280 277 273 257 250 246 246 253 257 265 264 268 270 264 257 256
89 26 44 18 350 340 335 333 332 331 326 324 322 320 318 317 318 315 311 306 305 302 297 292 287 286 281 278 273 269 264 258 254 247 250 256 257 266 263 267 263 257 249
66 81 6 344 339 337 335 336 333 328 327 326 325 323 324 324 323 321 317 313 308 305 301 294 289 283 278 275 270 258 250 253 253 244 245 251 251 259 270 258 261 251 246
77 4 348 346 343 338 338 333 329 328 331 329 328 330 330 329 322 322 321 317 311 306 300 295 289 285 279 273 268 260 255 251 252 244 244 248 248 250 260 256 251 241 236
22 353 348 343 337 337 334 330 331 333 333 334 335 336 333 333 335 333 329 325 319 312 307 302 297 292 289 281 261 251 249 252 252 248 250 255 258 257 257 247 235 221 204
354 344 341 337 336 334 333 333 334 338 338 338 339 340 343 344 345 340 339 338 335 330 323 317 311 303 292 276 251 238 227 238 242 236 252 256 264 248 239 233 221 200 199
350 339 335 336 338 337 335 337 342 343 341 344 344 351 351 353 347 349 350 349 349 342 333 326 321 304 305 267 237 208 208 212 215 235 222 232 209 202 196 184 181 185 179
356 344 345 342 340 340 340 345 346 343 347 349 355 359 359 356 358 359 1 1 6 359 357 359 349 317 308 302 175 175 203 221 189 210 192 188 167 164 163 155 144 135 136
2 353 347 344 344 344 349 350 349 354 356 0 4 4 1 3 4 8 12 19 26 28 29 35 42 49 15 287 175 176 188 184 165 149 144 140 134 133 135 135 132 129 126
12 359 354 350 349 353 354 354 360 3 7 5 3 4 8 8 13 18 23 31 37 42 44 51 53 62 87 122 137 150 142 131 127 123 120 121 122 123 129 134 125 121 118
9 2 357 354 356 358 358 6 9 11 5 2 4 8 13 16 22 30 37 49 55 58 60 64 65 71 90 119 126 120 122 121 115 112 111 111 112 115 120 122 120 116 111
8 2 359 1 2 3 8 16 16 11 9 10 14 16 21 34 38 47 58 68 72 74 74 74 76 80 84 92 102 106 107 106 107 105 105 103 103 110 115 111 110 107 107
7 5 2 5 10 16 21 22 19 11 13 20 30 33 35 42 49 63 72 79 81 80 81 80 80 81 84 85 88 92 96 102 103 101 98 95 93 93 101 106 106 108 109
10 9 7 15 28 32 31 30 20 24 30 37 47 52 53 60 65 71 82 86 84 81 76 76 78 81 83 88 90 94 98 98 97 96 94 97 98 98 97 100 100 103 107
14 14 15 32 40 39 36 34 29 36 48 58 67 73 75 74 79 85 80 81 79 77 77 75 74 77 80 83 84 86 92 95 98 98 98 100 101 103 107 107 101 92 92
19 23 32 46 49 47 42 32 35 54 68 77 80 82 81 83 85 87 85 83 80 77 74 66 70 70 70 64 80 92 97 100 104 102 94 91 95 94 95 98 97 92 85
27 37 51 62 62 58 55 52 62 67 77 85 84 86 86 84 83 81 80 76 71 77 75 76 80 80 82 84 88 93 96 98 102 94 86 80 78 79 85 86 81 73 64
Wind_Speed_850mb
16 3 12 12 15 15 22 24 31 40 38 40 46 56 66 61 64 57 52 48 47 48 48 46 42 41 45 48 63 67 69 68 68 73 72 72 72 72 71 76 75 69 69
15 1 4 14 10 19 19 23 39 38 32 37 43 51 62 62 65 64 70 63 55 52 55 59 59 54 51 49 53 56 63 68 67 66 72 72 72 76 72 66 69 70 81
8 7 5 4 17 15 20 38 39 30 28 36 42 51 58 58 68 76 80 73 69 65 64 64 64 65 60 58 55 52 55 60 65 63 63 30 40 63 68 60 49 48 60
6 4 9 12 9 16 32 34 28 26 32 38 40 46 52 64 74 78 80 83 86 84 75 70 65 61 60 62 64 58 53 51 58 71 66 65 68 63 61 61 47 41 42
14 10 9 10 10 30 28 26 20 24 32 36 45 53 60 64 70 76 84 86 91 95 91 85 76 69 66 61 57 60 56 57 55 54 69 74 64 66 72 72 69 67 68
4 5 5 12 26 28 27 11 17 28 32 42 51 58 62 66 74 83 95 104 106 98 85 81 78 75 73 72 69 58 51 55 57 58 55 63 61 67 63 69 80 77 74
7 7 11 23 19 13 13 20 23 31 44 52 61 67 73 83 92 100 107 110 108 90 84 76 73 74 70 71 72 70 62 53 51 54 62 61 65 64 73 73 73 67 55
24 7 18 12 11 17 24 27 34 42 51 62 75 85 95 99 103 107 112 113 91 74 66 72 68 67 66 61 54 62 62 61 61 54 49 52 62 60 65 69 72 67 67
7 11 7 12 20 20 21 29 42 52 63 80 90 97 100 106 113 114 109 100 72 68 58 62 72 62 57 58 59 70 69 67 69 66 55 51 48 53 60 61 59 63 58
6 7 12 16 11 18 30 42 54 70 85 90 95 102 109 113 111 101 89 74 71 65 64 66 66 60 54 54 57 56 62 68 73 75 68 61 54 58 53 50 52 58 60
10 11 9 8 21 33 47 60 74 83 90 96 104 112 109 94 82 74 70 73 67 60 59 62 58 58 55 53 51 51 48 53 62 66 67 67 61 51 55 47 43 49 55
9 9 11 23 37 48 60 70 82 91 95 104 108 97 83 75 74 72 68 65 65 64 60 57 57 55 54 50 49 50 52 47 38 44 47 51 51 50 40 45 43 46 51
11 13 24 36 47 57 67 78 87 94 102 101 90 79 72 69 72 69 67 65 62 60 56 56 56 56 54 52 50 42 43 46 48 50 45 43 41 45 46 42 40 47 42
15 22 33 43 50 58 71 84 90 96 93 83 74 70 70 66 64 63 63 60 55 53 51 47 46 47 45 44 40 42 40 35 32 33 35 36 34 36 38 37 42 42 31
19 27 33 42 52 64 78 84 88 87 77 71 66 66 62 60 62 63 59 53 47 40 39 39 36 27 29 29 29 32 31 27 22 20 23 25 26 25 26 33 36 32 22
11 21 33 42 56 69 77 82 83 74 66 64 61 58 59 61 60 57 52 48 41 36 35 31 18 13 12 8 14 23 21 23 21 26 24 21 22 19 24 26 23 17 18
12 23 34 48 60 71 76 77 70 62 59 55 53 53 58 56 54 51 48 43 40 35 29 22 11 9 13 13 19 25 25 21 34 32 31 30 32 32 26 26 33 34 28
15 27 41 53 63 69 72 65 55 54 51 50 53 53 53 50 47 46 44 42 40 39 36 31 20 11 6 6 20 28 31 39 43 49 43 42 38 34 33 37 35 30 29
22 36 49 59 65 69 64 56 54 51 51 53 52 49 47 42 41 42 41 38 38 39 39 37 32 26 25 20 34 36 54 55 52 53 47 43 41 35 31 35 46 49 52
34 48 58 62 66 63 54 50 50 52 52 51 46 44 38 36 37 36 38 41 43 45 45 47 45 37 34 29 52 64 62 61 59 53 51 48 50 50 50 53 55 56 51
43 54 60 62 59 53 48 46 49 51 46 43 39 37 37 32 34 34 37 45 54 58 63 65 63 60 57 52 50 60 67 67 67 68 65 60 54 50 49 47 45 42 35
45 56 58 56 52 46 45 44 48 43 41 39 35 33 32 32 32 35 42 51 62 71 78 81 83 81 82 77 72 68 72 73 79 75 66 58 54 49 42 42 41 39 37
47 53 52 47 45 50 48 46 43 41 36 34 36 36 35 36 38 42 51 65 74 78 76 75 71 68 65 67 67 65 66 66 64 61 56 49 48 51 51 46 41 35 28
44 47 44 41 44 47 45 43 39 37 34 37 41 46 54 55 56 69 71 70 71 69 71 70 67 60 59 57 52 48 47 45 48 54 52 44 42 41 38 33 33 32 25
40 41 37 38 43 45 44 39 38 38 45 49 54 62 66 68 69 72 74 73 74 67 69 65 59 55 58 54 51 55 57 55 53 48 41 40 36 36 34 32 32 26 19
36 34 31 39 48 53 47 39 44 47 54 68 76 70 70 72 71 68 64 57 53 61 62 61 64 62 53 46 45 46 46 40 34 45 53 53 48 40 34 34 32 28 20
Wind_Direction_850mb
165 71 3 323 296 310 326 331 336 337 332 335 343 346 351 354 352 340 329 324 313 294 290 288 288 279 278 265 254 259 264 264 265 267 267 264 267 269 266 261 260 260 261
174 176 276 273 283 327 324 328 333 324 322 333 338 339 340 343 343 343 340 328 317 313 304 295 287 285 286 280 266 260 262 263 261 260 262 270 273 264 265 268 268 267 260
187 244 264 348 343 330 331 331 323 312 323 328 330 331 331 333 335 335 334 331 326 315 308 306 302 289 279 280 278 280 270 264 262 261 255 259 252 270 276 281 284 279 270
174 118 35 351 324 338 334 327 314 313 318 325 326 326 326 328 333 334 329 324 322 317 308 302 301 296 287 275 271 275 275 273 268 265 262 256 258 269 284 275 278 280 274
98 34 348 337 335 336 337 328 302 306 316 319 318 321 323 325 327 325 322 318 315 312 306 301 297 291 288 276 270 266 267 268 265 265 265 265 263 263 263 273 276 275 277
35 15 5 348 338 335 323 319 303 310 313 317 319 319 319 319 317 319 318 316 315 310 301 296 294 290 281 274 269 262 260 260 262 261 261 264 264 261 264 264 270 274 275
317 331 331 338 340 341 338 322 309 311 317 318 318 317 317 317 317 318 318 316 312 305 299 296 289 288 287 277 266 265 258 257 262 263 258 261 262 265 263 264 265 271 278
343 342 350 25 33 350 333 319 315 317 319 322 321 320 318 315 315 317 316 313 307 302 296 294 290 284 284 283 270 261 257 251 252 255 258 259 259 262 261 263 261 266 271
9 356 70 7 353 345 332 321 325 329 328 327 322 319 317 316 316 314 311 309 301 299 293 286 291 288 285 284 273 258 251 249 248 251 255 260 263 266 266 266 263 260 262
36 99 11 5 12 337 335 333 331 332 330 325 322 319 317 316 313 311 308 305 301 296 292 293 293 292 285 280 277 273 257 250 246 246 253 257 265 264 268 270 264 257 256
89 26 44 18 350 340 335 333 332 331 326 324 322 320 318 317 318 315 311 306 305 302 297 292 287 286 281 278 273 269 264 258 254 247 250 256 257 266 263 267 263 257 249
66 81 6 344 339 337 335 336 333 328 327 326 325 323 324 324 323 321 317 313 308 305 301 294 289 283 278 275 270 258 250 253 253 244 245 251 251 259 270 258 261 251 246
77 4 348 346 343 338 338 333 329 328 331 329 328 330 330 329 322 322 321 317 311 306 300 295 289 285 279 273 268 260 255 251 252 244 244 248 248 250 260 256 251 241 236
22 353 348 343 337 337 334 330 331 333 333 334 335 336 333 333 335 333 329 325 319 312 307 302 297 292 289 281 261 251 249 252 252 248 250 255 258 257 257 247 235 221 204
354 344 341 337 336 334 333 333 334 338 338 338 339 340 343 344 345 340 339 338 335 330 323 317 311 303 292 276 251 238 227 238 242 236 252 256 264 248 239 233 221 200 199
350 339 335 336 338 337 335 337 342 343 341 344 344 351 351 353 347 349 350 349 349 342 333 326 321 304 305 267 237 208 208 212 215 235 222 232 209 202 196 184 181 185 179
356 344 345 342 340 340 340 345 346 343 347 349 355 359 359 356 358 359 1 1 6 359 357 359 349 317 308 302 175 175 203 221 189 210 192 188 167 164 163 155 144 135 136
2 353 347 344 344 344 349 350 349 354 356 0 4 4 1 3 4 8 12 19 26 28 29 35 42 49 15 287 175 176 188 184 165 149 144 140 134 133 135 135 132 129 126
12 359 354 350 349 353 354 354 360 3 7 5 3 4 8 8 13 18 23 31 37 42 44 51 53 62 87 122 137 150 142 131 127 123 120 121 122 123 129 134 125 121 118
9 2 357 354 356 358 358 6 9 11 5 2 4 8 13 16 22 30 37 49 55 58 60 64 65 71 90 119 126 120 122 121 115 112 111 111 112 115 120 122 120 116 111
8 2 359 1 2 3 8 16 16 11 9 10 14 16 21 34 38 47 58 68 72 74 74 74 76 80 84 92 102 106 107 106 107 105 105 103 103 110 115 111 110 107 107
7 5 2 5 10 16 21 22 19 11 13 20 30 33 35 42 49 63 72 79 81 80 81 80 80 81 84 85 88 92 96 102 103 101 98 95 93 93 101 106 106 108 109
10 9 7 15 28 32 31 30 20 24 30 37 47 52 53 60 65 71 82 86 84 81 76 76 78 81 83 88 90 94 98 98 97 96 94 97 98 98 97 100 100 103 107
14 14 15 32 40 39 36 34 29 36 48 58 67 73 75 74 79 85 80 81 79 77 77 75 74 77 80 83 84 86 92 95 98 98 98 100 101 103 107 107 101 92 92
19 23 32 46 49 47 42 32 35 54 68 77 80 82 81 83 85 87 85 83 80 77 74 66 70 70 70 64 80 92 97 100 104 102 94 91 95 94 95 98 97 92 85
27 37 51 62 62 58 55 52 62 67 77 85 84 86 86 84 83 81 80 76 71 77 75 76 80 80 82 84 88 93 96 98 102 94 86 80 78 79 85 86 81 73 64